Time,TemperatureF,DewpointF,PressureIn,WindDirection,WindDirectionDegrees,WindSpeedMPH,WindSpeedGustMPH,Humidity,HourlyPrecipIn,Conditions,Clouds,dailyrainin,SoftwareType,DateUTC
2013-01-20 00:00:00,43.8,35.7,29.92,SE,142,6.0,6.0,73,0.00,,,0.00,Wunderground v.1.15,2013-01-20 05:00:00,
2013-01-20 00:03:00,44.0,35.6,29.92,SSE,148,0.0,6.0,72,0.00,,,0.00,Wunderground v.1.15,2013-01-20 05:03:00,
2013-01-20 00:04:00,44.1,35.6,29.91,SSE,148,0.0,6.0,72,0.00,,,0.00,Wunderground v.1.15,2013-01-20 05:04:00,
2013-01-20 00:14:00,44.1,35.6,29.91,SSW,211,2.0,2.0,72,0.00,,,0.00,Wunderground v.1.15,2013-01-20 05:14:00,
2013-01-20 00:19:00,44.1,36.3,29.91,WSW,257,1.0,2.0,74,0.00,,,0.00,Wunderground v.1.15,2013-01-20 05:19:00,
2013-01-20 00:25:00,44.1,36.7,29.91,West,267,0.0,1.0,75,0.00,,,0.00,Wunderground v.1.15,2013-01-20 05:25:00,
2013-01-20 00:30:00,44.2,36.8,29.91,WSW,240,1.0,2.0,75,0.00,,,0.00,Wunderground v.1.15,2013-01-20 05:30:00,
2013-01-20 00:35:00,44.2,37.1,29.90,South,184,0.0,7.0,76,0.00,,,0.00,Wunderground v.1.15,2013-01-20 05:35:00,
2013-01-20 00:40:00,44.1,37.0,29.90,West,260,2.0,7.0,76,0.00,,,0.00,Wunderground v.1.15,2013-01-20 05:40:00,
2013-01-20 00:45:00,44.2,37.4,29.90,SW,217,1.0,2.0,77,0.00,,,0.00,Wunderground v.1.15,2013-01-20 05:45:00,
2013-01-20 00:51:00,44.2,37.8,29.89,WNW,297,2.0,2.0,78,0.00,,,0.00,Wunderground v.1.15,2013-01-20 05:51:00,
2013-01-20 00:56:00,44.3,38.2,29.89,West,261,5.0,8.0,79,0.00,,,0.00,Wunderground v.1.15,2013-01-20 05:56:00,
2013-01-20 01:02:00,44.5,38.1,29.89,WSW,238,2.0,2.0,78,0.00,,,0.00,Wunderground v.1.15,2013-01-20 06:02:00,
2013-01-20 01:07:00,44.6,38.2,29.89,SSW,198,3.0,4.0,78,0.00,,,0.00,Wunderground v.1.15,2013-01-20 06:07:00,
2013-01-20 01:13:00,44.7,38.3,29.89,SW,225,4.0,4.0,78,0.00,,,0.00,Wunderground v.1.15,2013-01-20 06:13:00,
2013-01-20 01:18:00,44.8,38.4,29.89,WSW,238,3.0,4.0,78,0.00,,,0.00,Wunderground v.1.15,2013-01-20 06:18:00,
2013-01-20 01:23:00,44.9,38.1,29.88,SSE,168,2.0,2.0,77,0.00,,,0.00,Wunderground v.1.15,2013-01-20 06:23:00,
2013-01-20 01:28:00,44.9,38.1,29.88,SW,214,7.0,7.0,77,0.00,,,0.00,Wunderground v.1.15,2013-01-20 06:28:00,
2013-01-20 01:33:00,45.0,38.2,29.88,WSW,241,0.0,5.0,77,0.00,,,0.00,Wunderground v.1.15,2013-01-20 06:33:00,
2013-01-20 01:38:00,45.0,38.2,29.88,West,273,2.0,5.0,77,0.00,,,0.00,Wunderground v.1.15,2013-01-20 06:38:00,
2013-01-20 01:43:00,44.9,38.1,29.88,WSW,250,1.0,2.0,77,0.00,,,0.00,Wunderground v.1.15,2013-01-20 06:43:00,
2013-01-20 01:48:00,45.0,38.2,29.88,SW,229,6.0,7.0,77,0.00,,,0.00,Wunderground v.1.15,2013-01-20 06:48:00,
2013-01-20 01:54:00,45.2,38.1,29.87,SSW,208,2.0,4.0,76,0.00,,,0.00,Wunderground v.1.15,2013-01-20 06:54:00,
2013-01-20 02:01:00,45.2,38.1,29.86,SSW,213,1.0,2.0,76,0.00,,,0.00,Wunderground v.1.15,2013-01-20 07:01:00,
2013-01-20 02:06:00,45.1,38.0,29.86,SW,231,2.0,4.0,76,0.00,,,0.00,Wunderground v.1.15,2013-01-20 07:06:00,
2013-01-20 02:11:00,44.9,37.8,29.85,SSW,206,2.0,5.0,76,0.00,,,0.00,Wunderground v.1.15,2013-01-20 07:11:00,
2013-01-20 02:15:00,44.9,38.1,29.85,SW,231,3.0,5.0,77,0.00,,,0.00,Wunderground v.1.15,2013-01-20 07:15:00,
2013-01-20 02:21:00,44.9,38.1,29.85,WSW,244,1.0,4.0,77,0.00,,,0.00,Wunderground v.1.15,2013-01-20 07:21:00,
2013-01-20 02:26:00,44.9,38.1,29.84,SSE,167,1.0,6.0,77,0.00,,,0.00,Wunderground v.1.15,2013-01-20 07:26:00,
2013-01-20 02:31:00,44.9,38.5,29.84,SW,223,0.0,4.0,78,0.00,,,0.00,Wunderground v.1.15,2013-01-20 07:31:00,
2013-01-20 02:36:00,44.8,38.4,29.84,SSW,194,4.0,9.0,78,0.00,,,0.00,Wunderground v.1.15,2013-01-20 07:36:00,
2013-01-20 02:41:00,44.8,38.7,29.84,WSW,248,2.0,4.0,79,0.00,,,0.00,Wunderground v.1.15,2013-01-20 07:41:00,
2013-01-20 02:46:00,44.8,38.4,29.84,SW,221,0.0,5.0,78,0.00,,,0.00,Wunderground v.1.15,2013-01-20 07:46:00,
2013-01-20 02:51:00,44.7,38.3,29.84,South,187,0.0,3.0,78,0.00,,,0.00,Wunderground v.1.15,2013-01-20 07:51:00,
2013-01-20 02:56:00,44.5,38.4,29.84,SW,232,3.0,7.0,79,0.00,,,0.00,Wunderground v.1.15,2013-01-20 07:56:00,
2013-01-20 03:01:00,44.5,38.1,29.83,SW,229,2.0,4.0,78,0.00,,,0.00,Wunderground v.1.15,2013-01-20 08:01:00,
2013-01-20 03:06:00,44.3,38.2,29.83,SSW,207,1.0,4.0,79,0.00,,,0.00,Wunderground v.1.15,2013-01-20 08:06:00,
2013-01-20 03:11:00,44.3,38.2,29.82,SW,214,0.0,1.0,79,0.00,,,0.00,Wunderground v.1.15,2013-01-20 08:11:00,
2013-01-20 03:16:00,44.3,38.5,29.82,SSE,165,1.0,7.0,80,0.00,,,0.00,Wunderground v.1.15,2013-01-20 08:16:00,
2013-01-20 03:21:00,44.3,38.2,29.82,WSW,258,0.0,4.0,79,0.00,,,0.00,Wunderground v.1.15,2013-01-20 08:21:00,
2013-01-20 03:26:00,44.2,38.1,29.81,SSE,158,2.0,8.0,79,0.00,,,0.00,Wunderground v.1.15,2013-01-20 08:26:00,
2013-01-20 03:31:00,44.2,38.1,29.81,SW,234,1.0,2.0,79,0.00,,,0.00,Wunderground v.1.15,2013-01-20 08:31:00,
2013-01-20 03:36:00,44.1,38.0,29.81,SW,219,0.0,5.0,79,0.00,,,0.00,Wunderground v.1.15,2013-01-20 08:36:00,
2013-01-20 03:41:00,44.0,37.9,29.81,WSW,255,0.0,6.0,79,0.00,,,0.00,Wunderground v.1.15,2013-01-20 08:41:00,
2013-01-20 03:46:00,44.0,37.9,29.81,WSW,246,2.0,6.0,79,0.00,,,0.00,Wunderground v.1.15,2013-01-20 08:46:00,
2013-01-20 03:51:00,44.0,37.9,29.81,SW,221,0.0,5.0,79,0.00,,,0.00,Wunderground v.1.15,2013-01-20 08:51:00,
2013-01-20 03:56:00,44.0,37.6,29.80,ESE,113,0.0,5.0,78,0.00,,,0.00,Wunderground v.1.15,2013-01-20 08:56:00,
2013-01-20 04:01:00,44.0,37.6,29.79,WSW,240,1.0,5.0,78,0.00,,,0.00,Wunderground v.1.15,2013-01-20 09:01:00,
2013-01-20 04:06:00,44.0,37.6,29.79,SSW,193,2.0,8.0,78,0.00,,,0.00,Wunderground v.1.15,2013-01-20 09:06:00,
2013-01-20 04:12:00,44.1,37.7,29.79,WSW,251,0.0,3.0,78,0.00,,,0.00,Wunderground v.1.15,2013-01-20 09:12:00,
2013-01-20 04:17:00,44.0,37.3,29.78,West,261,1.0,5.0,77,0.00,,,0.00,Wunderground v.1.15,2013-01-20 09:17:00,
2013-01-20 04:22:00,44.0,37.3,29.79,West,261,2.0,4.0,77,0.00,,,0.00,Wunderground v.1.15,2013-01-20 09:22:00,
2013-01-20 04:27:00,44.0,37.3,29.78,SW,218,3.0,8.0,77,0.00,,,0.00,Wunderground v.1.15,2013-01-20 09:27:00,
2013-01-20 04:32:00,44.0,37.3,29.79,SW,219,4.0,4.0,77,0.00,,,0.00,Wunderground v.1.15,2013-01-20 09:32:00,
2013-01-20 04:37:00,43.9,36.8,29.78,WSW,254,1.0,7.0,76,0.00,,,0.00,Wunderground v.1.15,2013-01-20 09:37:00,
2013-01-20 04:42:00,43.9,36.8,29.78,SW,217,0.0,4.0,76,0.00,,,0.00,Wunderground v.1.15,2013-01-20 09:42:00,
2013-01-20 04:47:00,43.8,36.7,29.78,South,176,5.0,5.0,76,0.00,,,0.00,Wunderground v.1.15,2013-01-20 09:47:00,
2013-01-20 04:52:00,43.7,36.6,29.78,WSW,237,4.0,7.0,76,0.00,,,0.00,Wunderground v.1.15,2013-01-20 09:52:00,
2013-01-20 04:57:00,43.7,36.6,29.77,SW,236,2.0,7.0,76,0.00,,,0.00,Wunderground v.1.15,2013-01-20 09:57:00,
2013-01-20 05:02:00,43.6,36.5,29.77,South,188,0.0,3.0,76,0.00,,,0.00,Wunderground v.1.15,2013-01-20 10:02:00,
2013-01-20 05:07:00,43.5,36.4,29.77,SW,221,3.0,5.0,76,0.00,,,0.00,Wunderground v.1.15,2013-01-20 10:07:00,
2013-01-20 05:12:00,43.6,36.9,29.76,SW,230,2.0,3.0,77,0.00,,,0.00,Wunderground v.1.15,2013-01-20 10:12:00,
2013-01-20 05:17:00,43.6,36.5,29.76,South,190,0.0,5.0,76,0.00,,,0.00,Wunderground v.1.15,2013-01-20 10:17:00,
2013-01-20 05:22:00,43.5,36.4,29.76,SW,219,2.0,4.0,76,0.00,,,0.00,Wunderground v.1.15,2013-01-20 10:22:00,
2013-01-20 05:27:00,43.6,36.5,29.76,SW,225,2.0,5.0,76,0.00,,,0.00,Wunderground v.1.15,2013-01-20 10:27:00,
2013-01-20 05:32:00,43.6,36.5,29.75,SW,217,2.0,5.0,76,0.00,,,0.00,Wunderground v.1.15,2013-01-20 10:32:00,
2013-01-20 05:37:00,43.7,36.6,29.75,SW,236,4.0,6.0,76,0.00,,,0.00,Wunderground v.1.15,2013-01-20 10:37:00,
2013-01-20 05:42:00,43.6,36.2,29.75,South,180,1.0,4.0,75,0.00,,,0.00,Wunderground v.1.15,2013-01-20 10:42:00,
2013-01-20 05:47:00,43.7,36.6,29.74,West,259,0.0,14.0,76,0.00,,,0.00,Wunderground v.1.15,2013-01-20 10:47:00,
2013-01-20 05:52:00,43.7,36.3,29.74,North,5,1.0,3.0,75,0.00,,,0.00,Wunderground v.1.15,2013-01-20 10:52:00,
2013-01-20 05:58:00,43.6,36.2,29.75,NE,53,0.0,8.0,75,0.00,,,0.00,Wunderground v.1.15,2013-01-20 10:58:00,
2013-01-20 06:03:00,43.5,36.1,29.74,SSW,201,3.0,7.0,75,0.00,,,0.00,Wunderground v.1.15,2013-01-20 11:03:00,
2013-01-20 06:08:00,43.6,35.9,29.74,SW,217,1.0,7.0,74,0.00,,,0.00,Wunderground v.1.15,2013-01-20 11:08:00,
2013-01-20 06:13:00,43.6,35.9,29.73,SSE,167,1.0,3.0,74,0.00,,,0.00,Wunderground v.1.15,2013-01-20 11:13:00,
2013-01-20 06:18:00,43.6,35.9,29.73,SW,226,0.0,5.0,74,0.00,,,0.00,Wunderground v.1.15,2013-01-20 11:18:00,
2013-01-20 06:23:00,43.6,35.9,29.72,SW,230,6.0,6.0,74,0.00,,,0.00,Wunderground v.1.15,2013-01-20 11:23:00,
2013-01-20 06:28:00,43.5,35.8,29.72,SSW,203,3.0,15.0,74,0.00,,,0.00,Wunderground v.1.15,2013-01-20 11:28:00,
2013-01-20 06:33:00,43.5,35.8,29.72,WSW,251,2.0,4.0,74,0.00,,,0.00,Wunderground v.1.15,2013-01-20 11:33:00,
2013-01-20 06:38:00,43.6,35.9,29.72,SSW,194,0.0,4.0,74,0.00,,,0.00,Wunderground v.1.15,2013-01-20 11:38:00,
2013-01-20 06:43:00,43.4,35.3,29.72,ESE,102,1.0,6.0,73,0.00,,,0.00,Wunderground v.1.15,2013-01-20 11:43:00,
2013-01-20 06:48:00,43.4,35.3,29.71,SSW,209,2.0,6.0,73,0.00,,,0.00,Wunderground v.1.15,2013-01-20 11:48:00,
2013-01-20 06:53:00,43.5,35.4,29.71,South,189,2.0,6.0,73,0.00,,,0.00,Wunderground v.1.15,2013-01-20 11:53:00,
2013-01-20 06:58:00,43.6,35.5,29.71,South,178,4.0,6.0,73,0.00,,,0.00,Wunderground v.1.15,2013-01-20 11:58:00,
2013-01-20 07:03:00,43.6,35.9,29.70,SSW,205,3.0,6.0,74,0.00,,,0.00,Wunderground v.1.15,2013-01-20 12:03:00,
2013-01-20 07:08:00,43.6,35.9,29.71,SW,232,0.0,6.0,74,0.00,,,0.00,Wunderground v.1.15,2013-01-20 12:08:00,
2013-01-20 07:13:00,43.6,35.9,29.70,SSW,202,1.0,5.0,74,0.00,,,0.00,Wunderground v.1.15,2013-01-20 12:13:00,
2013-01-20 07:18:00,43.7,36.0,29.70,South,181,0.0,5.0,74,0.00,,,0.00,Wunderground v.1.15,2013-01-20 12:18:00,
2013-01-20 07:23:00,43.8,36.4,29.70,SW,235,2.0,7.0,75,0.00,,,0.00,Wunderground v.1.15,2013-01-20 12:23:00,
2013-01-20 07:28:00,43.8,36.0,29.70,SW,229,3.0,7.0,74,0.00,,,0.00,Wunderground v.1.15,2013-01-20 12:28:00,
2013-01-20 07:33:00,43.8,36.0,29.70,SW,234,4.0,4.0,74,0.00,,,0.00,Wunderground v.1.15,2013-01-20 12:33:00,
2013-01-20 07:38:00,43.8,36.0,29.71,SW,233,9.0,9.0,74,0.00,,,0.00,Wunderground v.1.15,2013-01-20 12:38:00,
2013-01-20 07:43:00,43.9,36.1,29.71,WSW,238,3.0,5.0,74,0.00,,,0.00,Wunderground v.1.15,2013-01-20 12:43:00,
2013-01-20 07:48:00,43.9,36.1,29.71,SSW,202,2.0,6.0,74,0.00,,,0.00,Wunderground v.1.15,2013-01-20 12:48:00,
2013-01-20 07:53:00,44.0,36.2,29.70,WSW,246,2.0,6.0,74,0.00,,,0.00,Wunderground v.1.15,2013-01-20 12:53:00,
2013-01-20 07:58:00,44.1,36.3,29.70,SW,229,1.0,6.0,74,0.00,,,0.00,Wunderground v.1.15,2013-01-20 12:58:00,
2013-01-20 08:03:00,44.2,36.4,29.69,SW,223,2.0,5.0,74,0.00,,,0.00,Wunderground v.1.15,2013-01-20 13:03:00,
2013-01-20 08:08:00,44.3,36.2,29.70,SW,232,3.0,5.0,73,0.00,,,0.00,Wunderground v.1.15,2013-01-20 13:08:00,
2013-01-20 08:13:00,44.4,35.9,29.70,SW,235,4.0,7.0,72,0.00,,,0.00,Wunderground v.1.15,2013-01-20 13:13:00,
2013-01-20 08:18:00,44.6,36.1,29.70,South,182,4.0,7.0,72,0.00,,,0.00,Wunderground v.1.15,2013-01-20 13:18:00,
2013-01-20 08:23:00,44.8,36.0,29.69,WNW,286,2.0,6.0,71,0.00,,,0.00,Wunderground v.1.15,2013-01-20 13:23:00,
2013-01-20 08:29:00,44.9,35.7,29.69,SSW,208,4.0,6.0,70,0.00,,,0.00,Wunderground v.1.15,2013-01-20 13:29:00,
2013-01-20 08:34:00,45.1,35.9,29.68,SSW,194,3.0,3.0,70,0.00,,,0.00,Wunderground v.1.15,2013-01-20 13:34:00,
2013-01-20 08:39:00,45.2,35.6,29.68,SW,225,0.0,9.0,69,0.00,,,0.00,Wunderground v.1.15,2013-01-20 13:39:00,
2013-01-20 08:44:00,45.5,35.9,29.68,SSW,209,4.0,8.0,69,0.00,,,0.00,Wunderground v.1.15,2013-01-20 13:44:00,
2013-01-20 08:49:00,45.8,36.2,29.67,SSW,202,1.0,8.0,69,0.00,,,0.00,Wunderground v.1.15,2013-01-20 13:49:00,
2013-01-20 08:54:00,45.9,35.9,29.68,NNW,331,1.0,7.0,68,0.00,,,0.00,Wunderground v.1.15,2013-01-20 13:54:00,
2013-01-20 08:59:00,46.0,36.0,29.68,SW,233,4.0,7.0,68,0.00,,,0.00,Wunderground v.1.15,2013-01-20 13:59:00,
2013-01-20 09:04:00,46.2,36.2,29.69,SSW,211,0.0,6.0,68,0.00,,,0.00,Wunderground v.1.15,2013-01-20 14:04:00,
2013-01-20 09:09:00,46.5,36.5,29.68,WSW,240,1.0,6.0,68,0.00,,,0.00,Wunderground v.1.15,2013-01-20 14:09:00,
2013-01-20 09:14:00,46.8,36.4,29.69,SW,224,5.0,8.0,67,0.00,,,0.00,Wunderground v.1.15,2013-01-20 14:14:00,
2013-01-20 09:19:00,47.0,36.6,29.68,SSW,203,2.0,8.0,67,0.00,,,0.00,Wunderground v.1.15,2013-01-20 14:19:00,
2013-01-20 09:24:00,47.2,36.8,29.68,NNW,342,3.0,5.0,67,0.00,,,0.00,Wunderground v.1.15,2013-01-20 14:24:00,
2013-01-20 09:29:00,47.4,37.0,29.68,SSW,193,9.0,9.0,67,0.00,,,0.00,Wunderground v.1.15,2013-01-20 14:29:00,
2013-01-20 09:34:00,47.6,36.8,29.68,SW,219,3.0,8.0,66,0.00,,,0.00,Wunderground v.1.15,2013-01-20 14:34:00,
2013-01-20 09:39:00,47.7,36.9,29.68,SW,234,3.0,3.0,66,0.00,,,0.00,Wunderground v.1.15,2013-01-20 14:39:00,
2013-01-20 09:44:00,47.7,36.9,29.68,SSW,213,2.0,10.0,66,0.00,,,0.00,Wunderground v.1.15,2013-01-20 14:44:00,
2013-01-20 09:49:00,47.8,36.6,29.68,SW,231,2.0,3.0,65,0.00,,,0.00,Wunderground v.1.15,2013-01-20 14:49:00,
2013-01-20 09:54:00,47.8,36.6,29.68,WSW,254,3.0,12.0,65,0.00,,,0.00,Wunderground v.1.15,2013-01-20 14:54:00,
2013-01-20 09:59:00,47.9,36.7,29.68,SSE,167,4.0,4.0,65,0.00,,,0.00,Wunderground v.1.15,2013-01-20 14:59:00,
2013-01-20 10:04:00,47.9,36.7,29.68,NW,323,0.0,7.0,65,0.00,,,0.00,Wunderground v.1.15,2013-01-20 15:04:00,
2013-01-20 10:09:00,48.0,36.4,29.68,SSE,158,1.0,2.0,64,0.00,,,0.00,Wunderground v.1.15,2013-01-20 15:09:00,
2013-01-20 10:14:00,48.1,36.5,29.67,SW,233,3.0,7.0,64,0.00,,,0.00,Wunderground v.1.15,2013-01-20 15:14:00,
2013-01-20 10:19:00,48.3,36.3,29.67,SW,220,1.0,5.0,63,0.00,,,0.00,Wunderground v.1.15,2013-01-20 15:19:00,
2013-01-20 10:24:00,48.5,36.5,29.67,SSE,165,2.0,9.0,63,0.00,,,0.00,Wunderground v.1.15,2013-01-20 15:24:00,
2013-01-20 10:30:00,48.8,35.9,29.66,WSW,238,1.0,3.0,61,0.00,,,0.00,Wunderground v.1.15,2013-01-20 15:30:00,
2013-01-20 10:35:00,49.1,36.2,29.66,WSW,246,3.0,9.0,61,0.00,,,0.00,Wunderground v.1.15,2013-01-20 15:35:00,
2013-01-20 10:40:00,49.4,36.1,29.65,SE,132,3.0,9.0,60,0.00,,,0.00,Wunderground v.1.15,2013-01-20 15:40:00,
2013-01-20 10:45:00,49.7,35.5,29.65,SW,220,0.0,9.0,58,0.00,,,0.00,Wunderground v.1.15,2013-01-20 15:45:00,
2013-01-20 10:50:00,50.0,35.4,29.64,West,274,7.0,7.0,57,0.00,,,0.00,Wunderground v.1.15,2013-01-20 15:50:00,
2013-01-20 10:55:00,50.4,35.3,29.63,SSE,160,9.0,9.0,56,0.00,,,0.00,Wunderground v.1.15,2013-01-20 15:55:00,
2013-01-20 11:00:00,50.8,35.2,29.63,WSW,249,1.0,6.0,55,0.00,,,0.00,Wunderground v.1.15,2013-01-20 16:00:00,
2013-01-20 11:05:00,51.1,35.0,29.62,WNW,300,4.0,10.0,54,0.00,,,0.00,Wunderground v.1.15,2013-01-20 16:05:00,
2013-01-20 11:10:00,51.4,34.8,29.63,WSW,251,3.0,7.0,53,0.00,,,0.00,Wunderground v.1.15,2013-01-20 16:10:00,
2013-01-20 11:15:00,51.6,34.5,29.62,WSW,247,0.0,8.0,52,0.00,,,0.00,Wunderground v.1.15,2013-01-20 16:15:00,
2013-01-20 11:20:00,51.7,34.6,29.61,WSW,254,0.0,7.0,52,0.00,,,0.00,Wunderground v.1.15,2013-01-20 16:20:00,
2013-01-20 11:25:00,51.9,34.3,29.61,SSE,152,8.0,8.0,51,0.00,,,0.00,Wunderground v.1.15,2013-01-20 16:25:00,
2013-01-20 11:30:00,52.0,34.9,29.61,NNE,15,3.0,6.0,52,0.00,,,0.00,Wunderground v.1.15,2013-01-20 16:30:00,
2013-01-20 11:35:00,52.1,34.0,29.61,SSW,202,7.0,10.0,50,0.00,,,0.00,Wunderground v.1.15,2013-01-20 16:35:00,
2013-01-20 11:40:00,52.3,34.2,29.60,WSW,240,2.0,6.0,50,0.00,,,0.00,Wunderground v.1.15,2013-01-20 16:40:00,
2013-01-20 11:45:00,52.4,33.8,29.60,South,178,3.0,11.0,49,0.00,,,0.00,Wunderground v.1.15,2013-01-20 16:45:00,
2013-01-20 11:50:00,52.6,34.0,29.59,South,180,7.0,11.0,49,0.00,,,0.00,Wunderground v.1.15,2013-01-20 16:50:00,
2013-01-20 11:55:00,52.6,34.0,29.59,WSW,250,4.0,12.0,49,0.00,,,0.00,Wunderground v.1.15,2013-01-20 16:55:00,
2013-01-20 12:00:00,52.7,33.5,29.59,SSE,167,0.0,3.0,48,0.00,,,0.00,Wunderground v.1.15,2013-01-20 17:00:00,
2013-01-20 12:05:00,52.8,33.6,29.58,WSW,254,3.0,10.0,48,0.00,,,0.00,Wunderground v.1.15,2013-01-20 17:05:00,
2013-01-20 12:10:00,52.9,33.7,29.59,West,270,3.0,5.0,48,0.00,,,0.00,Wunderground v.1.15,2013-01-20 17:10:00,
2013-01-20 12:15:00,53.0,33.3,29.58,SW,227,4.0,7.0,47,0.00,,,0.00,Wunderground v.1.15,2013-01-20 17:15:00,
2013-01-20 12:20:00,53.1,33.4,29.57,WSW,248,2.0,3.0,47,0.00,,,0.00,Wunderground v.1.15,2013-01-20 17:20:00,
2013-01-20 12:25:00,53.3,33.6,29.57,SSE,167,4.0,12.0,47,0.00,,,0.00,Wunderground v.1.15,2013-01-20 17:25:00,
2013-01-20 12:30:00,53.5,33.2,29.57,West,272,1.0,3.0,46,0.00,,,0.00,Wunderground v.1.15,2013-01-20 17:30:00,
2013-01-20 12:35:00,53.6,33.3,29.57,WNW,284,4.0,8.0,46,0.00,,,0.00,Wunderground v.1.15,2013-01-20 17:35:00,
2013-01-20 12:40:00,53.6,32.8,29.57,WSW,256,1.0,10.0,45,0.00,,,0.00,Wunderground v.1.15,2013-01-20 17:40:00,
2013-01-20 12:45:00,53.6,33.3,29.57,NW,306,4.0,10.0,46,0.00,,,0.00,Wunderground v.1.15,2013-01-20 17:45:00,
2013-01-20 12:50:00,53.8,32.4,29.57,WSW,252,4.0,6.0,44,0.00,,,0.00,Wunderground v.1.15,2013-01-20 17:50:00,
2013-01-20 12:55:00,53.7,32.3,29.56,SW,232,5.0,13.0,44,0.00,,,0.00,Wunderground v.1.15,2013-01-20 17:55:00,
2013-01-20 13:01:00,53.5,32.1,29.57,WNW,302,3.0,9.0,44,0.00,,,0.00,Wunderground v.1.15,2013-01-20 18:01:00,
2013-01-20 13:06:00,53.4,32.0,29.57,SE,133,3.0,10.0,44,0.00,,,0.00,Wunderground v.1.15,2013-01-20 18:06:00,
2013-01-20 13:11:00,53.4,32.0,29.57,WSW,256,4.0,8.0,44,0.00,,,0.00,Wunderground v.1.15,2013-01-20 18:11:00,
2013-01-20 13:16:00,53.4,31.4,29.57,WNW,286,2.0,9.0,43,0.00,,,0.00,Wunderground v.1.15,2013-01-20 18:16:00,
2013-01-20 13:21:00,53.4,30.9,29.57,SW,222,8.0,8.0,42,0.00,,,0.00,Wunderground v.1.15,2013-01-20 18:21:00,
2013-01-20 13:26:00,53.2,31.3,29.58,South,190,1.0,8.0,43,0.00,,,0.00,Wunderground v.1.15,2013-01-20 18:26:00,
2013-01-20 13:31:00,53.3,30.8,29.58,WSW,246,1.0,9.0,42,0.00,,,0.00,Wunderground v.1.15,2013-01-20 18:31:00,
2013-01-20 13:36:00,53.1,30.6,29.57,WSW,246,2.0,13.0,42,0.00,,,0.00,Wunderground v.1.15,2013-01-20 18:36:00,
2013-01-20 13:41:00,53.1,31.2,29.57,NNW,343,2.0,4.0,43,0.00,,,0.00,Wunderground v.1.15,2013-01-20 18:41:00,
2013-01-20 13:46:00,53.2,31.3,29.57,WNW,286,10.0,10.0,43,0.00,,,0.00,Wunderground v.1.15,2013-01-20 18:46:00,
2013-01-20 13:51:00,53.1,30.0,29.57,ESE,110,8.0,12.0,41,0.00,,,0.00,Wunderground v.1.15,2013-01-20 18:51:00,
2013-01-20 13:56:00,53.0,30.5,29.58,South,177,2.0,12.0,42,0.00,,,0.00,Wunderground v.1.15,2013-01-20 18:56:00,
2013-01-20 14:01:00,52.8,30.3,29.58,ENE,70,4.0,11.0,42,0.00,,,0.00,Wunderground v.1.15,2013-01-20 19:01:00,
2013-01-20 14:06:00,52.9,31.0,29.58,WNW,289,4.0,12.0,43,0.00,,,0.00,Wunderground v.1.15,2013-01-20 19:06:00,
2013-01-20 14:11:00,53.0,31.1,29.58,West,268,2.0,8.0,43,0.00,,,0.00,Wunderground v.1.15,2013-01-20 19:11:00,
2013-01-20 14:16:00,52.9,30.4,29.58,WSW,258,1.0,10.0,42,0.00,,,0.00,Wunderground v.1.15,2013-01-20 19:16:00,
2013-01-20 14:21:00,52.8,30.3,29.59,WSW,244,5.0,6.0,42,0.00,,,0.00,Wunderground v.1.15,2013-01-20 19:21:00,
2013-01-20 14:26:00,52.9,30.4,29.59,SSW,202,0.0,8.0,42,0.00,,,0.00,Wunderground v.1.15,2013-01-20 19:26:00,
2013-01-20 14:31:00,52.7,30.2,29.59,WSW,254,4.0,6.0,42,0.00,,,0.00,Wunderground v.1.15,2013-01-20 19:31:00,
2013-01-20 14:36:00,52.6,30.7,29.59,West,259,5.0,13.0,43,0.00,,,0.00,Wunderground v.1.15,2013-01-20 19:36:00,
2013-01-20 14:41:00,52.4,30.5,29.59,NW,319,5.0,10.0,43,0.00,,,0.00,Wunderground v.1.15,2013-01-20 19:41:00,
2013-01-20 14:46:00,52.3,31.0,29.60,SW,224,4.0,14.0,44,0.00,,,0.00,Wunderground v.1.15,2013-01-20 19:46:00,
2013-01-20 14:51:00,52.1,30.3,29.60,WSW,238,6.0,9.0,43,0.00,,,0.00,Wunderground v.1.15,2013-01-20 19:51:00,
2013-01-20 14:56:00,51.9,30.1,29.60,WNW,295,6.0,9.0,43,0.00,,,0.00,Wunderground v.1.15,2013-01-20 19:56:00,
2013-01-20 15:01:00,51.7,30.5,29.61,West,259,1.0,7.0,44,0.00,,,0.00,Wunderground v.1.15,2013-01-20 20:01:00,
2013-01-20 15:06:00,51.5,30.8,29.61,NW,309,3.0,7.0,45,0.00,,,0.00,Wunderground v.1.15,2013-01-20 20:06:00,
2013-01-20 15:11:00,51.3,30.1,29.61,SE,140,2.0,7.0,44,0.00,,,0.00,Wunderground v.1.15,2013-01-20 20:11:00,
2013-01-20 15:16:00,51.2,30.6,29.61,WNW,302,1.0,7.0,45,0.00,,,0.00,Wunderground v.1.15,2013-01-20 20:16:00,
2013-01-20 15:22:00,51.1,31.0,29.61,South,186,0.0,10.0,46,0.00,,,0.00,Wunderground v.1.15,2013-01-20 20:22:00,
2013-01-20 15:27:00,50.9,30.3,29.61,WSW,258,1.0,10.0,45,0.00,,,0.00,Wunderground v.1.15,2013-01-20 20:27:00,
2013-01-20 15:32:00,50.7,30.1,29.61,WSW,255,1.0,7.0,45,0.00,,,0.00,Wunderground v.1.15,2013-01-20 20:32:00,
2013-01-20 15:37:00,50.6,30.6,29.62,WNW,290,0.0,8.0,46,0.00,,,0.00,Wunderground v.1.15,2013-01-20 20:37:00,
2013-01-20 15:42:00,50.6,30.0,29.61,SW,232,2.0,5.0,45,0.00,,,0.00,Wunderground v.1.15,2013-01-20 20:42:00,
2013-01-20 15:47:00,50.5,29.9,29.63,West,260,0.0,13.0,45,0.00,,,0.00,Wunderground v.1.15,2013-01-20 20:47:00,
2013-01-20 15:52:00,50.4,30.4,29.63,WSW,242,2.0,5.0,46,0.00,,,0.00,Wunderground v.1.15,2013-01-20 20:52:00,
2013-01-20 15:57:00,50.3,29.7,29.63,West,261,4.0,8.0,45,0.00,,,0.00,Wunderground v.1.15,2013-01-20 20:57:00,
2013-01-20 16:02:00,50.3,29.7,29.63,SSW,199,7.0,9.0,45,0.00,,,0.00,Wunderground v.1.15,2013-01-20 21:02:00,
2013-01-20 16:07:00,50.1,30.1,29.65,NW,308,8.0,12.0,46,0.00,,,0.00,Wunderground v.1.15,2013-01-20 21:07:00,
2013-01-20 16:12:00,49.4,31.0,29.65,NW,321,5.0,9.0,49,0.00,,,0.00,Wunderground v.1.15,2013-01-20 21:12:00,
2013-01-20 16:17:00,48.5,31.2,29.65,WSW,257,9.0,13.0,51,0.00,,,0.00,Wunderground v.1.15,2013-01-20 21:17:00,
2013-01-20 16:23:00,47.8,31.5,29.66,NNW,338,6.0,10.0,53,0.00,,,0.00,Wunderground v.1.15,2013-01-20 21:23:00,
2013-01-20 16:28:00,47.2,30.9,29.66,NW,318,4.0,11.0,53,0.00,,,0.00,Wunderground v.1.15,2013-01-20 21:28:00,
2013-01-20 16:33:00,46.9,31.1,29.67,WNW,298,6.0,10.0,54,0.00,,,0.00,Wunderground v.1.15,2013-01-20 21:33:00,
2013-01-20 16:38:00,46.7,31.4,29.66,NW,319,3.0,10.0,55,0.00,,,0.00,Wunderground v.1.15,2013-01-20 21:38:00,
2013-01-20 16:43:00,46.3,31.0,29.67,WNW,292,1.0,7.0,55,0.00,,,0.00,Wunderground v.1.15,2013-01-20 21:43:00,
2013-01-20 16:48:00,46.1,30.8,29.67,NW,310,3.0,9.0,55,0.00,,,0.00,Wunderground v.1.15,2013-01-20 21:48:00,
2013-01-20 16:53:00,45.9,31.1,29.67,NW,305,7.0,7.0,56,0.00,,,0.00,Wunderground v.1.15,2013-01-20 21:53:00,
2013-01-20 16:58:00,45.7,30.9,29.68,WNW,301,1.0,8.0,56,0.00,,,0.00,Wunderground v.1.15,2013-01-20 21:58:00,
2013-01-20 17:03:00,45.4,31.0,29.68,WNW,292,5.0,6.0,57,0.00,,,0.00,Wunderground v.1.15,2013-01-20 22:03:00,
2013-01-20 17:08:00,45.2,30.9,29.68,WNW,291,0.0,6.0,57,0.00,,,0.00,Wunderground v.1.15,2013-01-20 22:08:00,
2013-01-20 17:13:00,44.9,31.0,29.68,WNW,291,0.0,1.0,58,0.00,,,0.00,Wunderground v.1.15,2013-01-20 22:13:00,
2013-01-20 17:18:00,44.6,31.1,29.68,WNW,291,0.0,1.0,59,0.00,,,0.00,Wunderground v.1.15,2013-01-20 22:18:00,
2013-01-20 17:23:00,44.3,30.9,29.69,WNW,291,0.0,1.0,59,0.00,,,0.00,Wunderground v.1.15,2013-01-20 22:23:00,
2013-01-20 17:28:00,44.0,30.6,29.69,WNW,291,0.0,1.0,59,0.00,,,0.00,Wunderground v.1.15,2013-01-20 22:28:00,
2013-01-20 17:33:00,43.6,30.6,29.69,WNW,291,0.0,0.0,60,0.00,,,0.00,Wunderground v.1.15,2013-01-20 22:33:00,
2013-01-20 17:38:00,43.3,30.3,29.69,WNW,291,0.0,0.0,60,0.00,,,0.00,Wunderground v.1.15,2013-01-20 22:38:00,
2013-01-20 17:43:00,43.0,30.5,29.70,WNW,291,0.0,3.0,61,0.00,,,0.00,Wunderground v.1.15,2013-01-20 22:43:00,
2013-01-20 17:48:00,42.7,30.6,29.70,NW,323,4.0,4.0,62,0.00,,,0.00,Wunderground v.1.15,2013-01-20 22:48:00,
2013-01-20 17:53:00,42.7,30.2,29.71,WNW,284,3.0,3.0,61,0.00,,,0.00,Wunderground v.1.15,2013-01-20 22:53:00,
2013-01-20 17:58:00,42.7,29.8,29.72,WNW,290,0.0,4.0,60,0.00,,,0.00,Wunderground v.1.15,2013-01-20 22:58:00,
2013-01-20 18:03:00,42.8,29.9,29.72,NW,304,2.0,5.0,60,0.00,,,0.00,Wunderground v.1.15,2013-01-20 23:03:00,
2013-01-20 18:08:00,43.0,29.6,29.73,WNW,292,8.0,9.0,59,0.00,,,0.00,Wunderground v.1.15,2013-01-20 23:08:00,
2013-01-20 18:13:00,43.1,24.7,29.73,WNW,282,6.0,12.0,48,0.00,,,0.00,Wunderground v.1.15,2013-01-20 23:13:00,
2013-01-20 18:18:00,43.3,20.0,29.74,NW,310,7.0,13.0,39,0.00,,,0.00,Wunderground v.1.15,2013-01-20 23:18:00,
2013-01-20 18:23:00,43.2,19.3,29.74,NW,304,2.0,10.0,38,0.00,,,0.00,Wunderground v.1.15,2013-01-20 23:23:00,
2013-01-20 18:29:00,42.9,18.4,29.74,WNW,286,6.0,10.0,37,0.00,,,0.00,Wunderground v.1.15,2013-01-20 23:29:00,
2013-01-20 18:34:00,42.6,18.7,29.75,NW,310,3.0,7.0,38,0.00,,,0.00,Wunderground v.1.15,2013-01-20 23:34:00,
2013-01-20 18:39:00,42.4,19.2,29.75,NW,324,3.0,10.0,39,0.00,,,0.00,Wunderground v.1.15,2013-01-20 23:39:00,
2013-01-20 18:44:00,42.0,20.0,29.76,NNW,328,6.0,13.0,41,0.00,,,0.00,Wunderground v.1.15,2013-01-20 23:44:00,
2013-01-20 18:49:00,41.5,20.6,29.76,NW,308,13.0,16.0,43,0.00,,,0.00,Wunderground v.1.15,2013-01-20 23:49:00,
2013-01-20 18:54:00,41.0,19.1,29.77,WNW,288,10.0,18.0,41,0.00,,,0.00,Wunderground v.1.15,2013-01-20 23:54:00,
2013-01-20 18:59:00,40.6,18.7,29.78,WNW,300,6.0,18.0,41,0.00,,,0.00,Wunderground v.1.15,2013-01-20 23:59:00,
2013-01-20 19:04:00,40.3,19.0,29.78,WNW,290,2.0,10.0,42,0.00,,,0.00,Wunderground v.1.15,2013-01-21 00:04:00,
2013-01-20 19:09:00,40.0,19.3,29.78,West,280,4.0,12.0,43,0.00,,,0.00,Wunderground v.1.15,2013-01-21 00:09:00,
2013-01-20 19:14:00,39.6,18.4,29.78,WNW,285,7.0,15.0,42,0.00,,,0.00,Wunderground v.1.15,2013-01-21 00:14:00,
2013-01-20 19:19:00,39.3,18.1,29.78,WNW,300,6.0,15.0,42,0.00,,,0.00,Wunderground v.1.15,2013-01-21 00:19:00,
2013-01-20 19:24:00,39.0,18.4,29.78,West,275,6.0,8.0,43,0.00,,,0.00,Wunderground v.1.15,2013-01-21 00:24:00,
2013-01-20 19:29:00,38.8,18.7,29.79,WNW,294,1.0,10.0,44,0.00,,,0.00,Wunderground v.1.15,2013-01-21 00:29:00,
2013-01-20 19:34:00,38.6,19.1,29.79,WNW,282,5.0,6.0,45,0.00,,,0.00,Wunderground v.1.15,2013-01-21 00:34:00,
2013-01-20 19:39:00,38.2,19.2,29.80,NW,312,13.0,13.0,46,0.00,,,0.00,Wunderground v.1.15,2013-01-21 00:39:00,
2013-01-20 19:44:00,37.9,19.4,29.80,WNW,287,6.0,10.0,47,0.00,,,0.00,Wunderground v.1.15,2013-01-21 00:44:00,
2013-01-20 19:49:00,37.5,19.1,29.80,WNW,282,5.0,10.0,47,0.00,,,0.00,Wunderground v.1.15,2013-01-21 00:49:00,
2013-01-20 19:54:00,37.3,19.4,29.81,WNW,284,2.0,7.0,48,0.00,,,0.00,Wunderground v.1.15,2013-01-21 00:54:00,
2013-01-20 19:59:00,37.1,19.7,29.81,WNW,285,3.0,11.0,49,0.00,,,0.00,Wunderground v.1.15,2013-01-21 00:59:00,
2013-01-20 20:04:00,36.8,19.4,29.81,WNW,300,2.0,6.0,49,0.00,,,0.00,Wunderground v.1.15,2013-01-21 01:04:00,
2013-01-20 20:09:00,36.5,19.1,29.81,SW,219,2.0,6.0,49,0.00,,,0.00,Wunderground v.1.15,2013-01-21 01:09:00,
2013-01-20 20:14:00,36.3,18.5,29.81,NW,305,4.0,12.0,48,0.00,,,0.00,Wunderground v.1.15,2013-01-21 01:14:00,
2013-01-20 20:19:00,36.1,18.3,29.82,WNW,292,4.0,12.0,48,0.00,,,0.00,Wunderground v.1.15,2013-01-21 01:19:00,
2013-01-20 20:24:00,35.9,19.0,29.82,WNW,292,4.0,8.0,50,0.00,,,0.00,Wunderground v.1.15,2013-01-21 01:24:00,
2013-01-20 20:29:00,35.7,19.3,29.83,WNW,290,2.0,8.0,51,0.00,,,0.00,Wunderground v.1.15,2013-01-21 01:29:00,
2013-01-20 20:34:00,35.4,19.0,29.83,WNW,296,3.0,8.0,51,0.00,,,0.00,Wunderground v.1.15,2013-01-21 01:34:00,
2013-01-20 20:39:00,35.2,18.4,29.83,WNW,289,5.0,13.0,50,0.00,,,0.00,Wunderground v.1.15,2013-01-21 01:39:00,
2013-01-20 20:44:00,35.1,18.3,29.84,NW,325,8.0,11.0,50,0.00,,,0.00,Wunderground v.1.15,2013-01-21 01:44:00,
2013-01-20 20:49:00,34.9,17.7,29.84,NNW,331,6.0,6.0,49,0.00,,,0.00,Wunderground v.1.15,2013-01-21 01:49:00,
2013-01-20 20:54:00,34.7,17.0,29.85,West,279,7.0,14.0,48,0.00,,,0.00,Wunderground v.1.15,2013-01-21 01:54:00,
2013-01-20 20:59:00,34.5,17.3,29.85,NW,317,11.0,11.0,49,0.00,,,0.00,Wunderground v.1.15,2013-01-21 01:59:00,
2013-01-20 21:05:00,34.3,17.1,29.85,West,272,6.0,11.0,49,0.00,,,0.00,Wunderground v.1.15,2013-01-21 02:05:00,
2013-01-20 21:10:00,34.1,17.4,29.85,NW,304,4.0,6.0,50,0.00,,,0.00,Wunderground v.1.15,2013-01-21 02:10:00,
2013-01-20 21:15:00,33.9,17.2,29.86,WNW,282,12.0,13.0,50,0.00,,,0.00,Wunderground v.1.15,2013-01-21 02:15:00,
2013-01-20 21:20:00,33.8,16.6,29.86,WNW,299,8.0,8.0,49,0.00,,,0.00,Wunderground v.1.15,2013-01-21 02:20:00,
2013-01-20 21:25:00,33.6,16.0,29.86,WNW,300,8.0,22.0,48,0.00,,,0.00,Wunderground v.1.15,2013-01-21 02:25:00,
2013-01-20 21:30:00,33.5,15.9,29.87,WNW,289,7.0,7.0,48,0.00,,,0.00,Wunderground v.1.15,2013-01-21 02:30:00,
2013-01-20 21:35:00,33.2,15.6,29.87,West,277,6.0,13.0,48,0.00,,,0.00,Wunderground v.1.15,2013-01-21 02:35:00,
2013-01-20 21:40:00,33.0,15.4,29.87,NW,317,7.0,12.0,48,0.00,,,0.00,Wunderground v.1.15,2013-01-21 02:40:00,
2013-01-20 21:45:00,32.9,15.8,29.88,WNW,301,3.0,12.0,49,0.00,,,0.00,Wunderground v.1.15,2013-01-21 02:45:00,
2013-01-20 21:50:00,32.8,16.6,29.88,WNW,286,14.0,14.0,51,0.00,,,0.00,Wunderground v.1.15,2013-01-21 02:50:00,
2013-01-20 21:55:00,32.6,16.0,29.88,WNW,300,7.0,20.0,50,0.00,,,0.00,Wunderground v.1.15,2013-01-21 02:55:00,
2013-01-20 22:00:00,32.4,15.3,29.89,NW,325,11.0,12.0,49,0.00,,,0.00,Wunderground v.1.15,2013-01-21 03:00:00,
2013-01-20 22:05:00,32.2,14.2,29.89,NW,325,8.0,12.0,47,0.00,,,0.00,Wunderground v.1.15,2013-01-21 03:05:00,
2013-01-20 22:10:00,32.0,14.5,29.89,West,274,7.0,10.0,48,0.00,,,0.00,Wunderground v.1.15,2013-01-21 03:10:00,
2013-01-20 22:15:00,31.8,14.3,29.90,West,279,5.0,10.0,48,0.00,,,0.00,Wunderground v.1.15,2013-01-21 03:15:00,
2013-01-20 22:20:00,31.6,15.1,29.90,NW,306,9.0,10.0,50,0.00,,,0.00,Wunderground v.1.15,2013-01-21 03:20:00,
2013-01-20 22:25:00,31.4,13.5,29.90,WNW,288,3.0,10.0,47,0.00,,,0.00,Wunderground v.1.15,2013-01-21 03:25:00,
2013-01-20 22:31:00,31.2,14.2,29.90,NW,313,7.0,15.0,49,0.00,,,0.00,Wunderground v.1.15,2013-01-21 03:31:00,
2013-01-20 22:36:00,31.0,12.6,29.90,West,265,6.0,15.0,46,0.00,,,0.00,Wunderground v.1.15,2013-01-21 03:36:00,
2013-01-20 22:41:00,30.8,12.4,29.91,NW,312,6.0,15.0,46,0.00,,,0.00,Wunderground v.1.15,2013-01-21 03:41:00,
2013-01-20 22:46:00,30.7,13.3,29.91,NW,305,14.0,15.0,48,0.00,,,0.00,Wunderground v.1.15,2013-01-21 03:46:00,
2013-01-20 22:51:00,30.6,12.7,29.91,WNW,287,6.0,10.0,47,0.00,,,0.00,Wunderground v.1.15,2013-01-21 03:51:00,
2013-01-20 22:56:00,30.5,13.1,29.91,NW,307,6.0,11.0,48,0.00,,,0.00,Wunderground v.1.15,2013-01-21 03:56:00,
2013-01-20 23:01:00,30.3,12.9,29.91,West,278,3.0,11.0,48,0.00,,,0.00,Wunderground v.1.15,2013-01-21 04:01:00,
2013-01-20 23:06:00,30.1,12.3,29.91,WNW,302,7.0,11.0,47,0.00,,,0.00,Wunderground v.1.15,2013-01-21 04:06:00,
2013-01-20 23:11:00,30.0,12.2,29.91,West,274,1.0,6.0,47,0.00,,,0.00,Wunderground v.1.15,2013-01-21 04:11:00,
2013-01-20 23:17:00,29.9,12.6,29.91,NW,311,8.0,8.0,48,0.00,,,0.00,Wunderground v.1.15,2013-01-21 04:17:00,
2013-01-20 23:22:00,29.8,12.9,29.92,NNW,333,5.0,9.0,49,0.00,,,0.00,Wunderground v.1.15,2013-01-21 04:22:00,
2013-01-20 23:27:00,29.7,12.8,29.92,NNW,342,1.0,12.0,49,0.00,,,0.00,Wunderground v.1.15,2013-01-21 04:27:00,
2013-01-20 23:32:00,29.6,11.8,29.92,NW,304,3.0,8.0,47,0.00,,,0.00,Wunderground v.1.15,2013-01-21 04:32:00,
2013-01-20 23:37:00,29.5,11.2,29.92,NW,307,7.0,9.0,46,0.00,,,0.00,Wunderground v.1.15,2013-01-21 04:37:00,
2013-01-20 23:42:00,29.5,12.2,29.93,NW,306,5.0,8.0,48,0.00,,,0.00,Wunderground v.1.15,2013-01-21 04:42:00,
2013-01-20 23:47:00,29.5,11.7,29.93,NW,304,3.0,10.0,47,0.00,,,0.00,Wunderground v.1.15,2013-01-21 04:47:00,
2013-01-20 23:52:00,29.5,11.2,29.93,NNW,346,5.0,14.0,46,0.00,,,0.00,Wunderground v.1.15,2013-01-21 04:52:00,
2013-01-20 23:58:00,29.4,11.1,29.92,WNW,293,6.0,14.0,46,0.00,,,0.00,Wunderground v.1.15,2013-01-21 04:58:00,